STARLINK-32465, 61716

Orbit data source: Space-Track

STARLINK-32465, 61716 is a payload satellite owned by SpaceX/Seattle (US) in LEO that was launched on Wed, 30 Oct 2024 UTC via an FALCON 9 launch vehicle from the Air Force Eastern Test Range (AFETR). Payload-class satellites include a variety of spacecraft equipped with specific instruments for various scientific and technological missions. These include communications satellites like Starlink; space stations such as the ISS; scientific satellites like the Hubble; Earth observation satellites from companies like Planet Labs, Umbra, and HawkEye 360; GPS; miniature CubeSats for education and research; and military/defense satellites.

Loading next visibility...
Identifier
61716, 2024-196K
Orbit
LEO
Last TLE update
2 days ago
Origin
Manufacturer
SpaceX/Seattle
Mission
Operational Commercial Communications
Bus & Motor
STARLINK V2M, Unknown motor
Mass
730 kg wet, ~700 kg dry
Launch date (UTC)
2024-10-30 (6 months ago)
Launch vehicle
FALCON 9
Launch site
Air Force Eastern Test Range (AFETR)
Object type
Payload
Rocket body
Debris
Shape & HBR
Box + 2 Pan, 29 m
Radar Cross Section
36.964 m², Large (>1 m²)

Expand to show TLE details & history

TLE from 2 days ago
0 STARLINK-32465
1 61716U 24196K   25128.15358407  .00000320  00000-0  22922-4 0  9990
2 61716  53.1596  80.8092 0001301  85.5771 274.5378 15.30194606 30371
Epoch: 2025-05-08T03:41Z
Definitive object data (Epoch: 2025-05-08T03:41:09.663Z)
Latitude
-0.00006°
Longitude
159.29073°
Altitude
476.06 km
Speed
7.629 km/s
True Right ascension
05h 23m 14s
True Declination
0° 00' 00"
Sunlit
Object was in daylight at TLE epoch
Visualization TLE readout
Latitude
-17.2434°
Longitude
-14.48803°
Altitude
480.238 km
Speed
7.625 km/s
Apparent Right ascension
15h 43m 10s
Apparent Declination
-33° 42' 36"
Sunlit
Object is in full shadow
Visualization observer readout
Local Sidereal Time
00:47:30
Azimuth
265.919° W
Elevation
-54.658°
Doppler factor
1
Orbital elements
Apogee altitude
476.379 km
Perigee altitude
474.596 km
Semi-major axis
6,853.625 km
Eccentricity
0.0001301
Inclination
53.1596°
RAAN
80.8092°
Arg. of periapsis
85.5771°
True anomaly
274.52294°
Mean anomaly
274.5378°
Eccentric anomaly
274.53037°
Mean motion
3.82528 °/min
BSTAR
0.000022922
Orbital period
94.11 mins
Loading maneuver chart data...
Loading SW <> Apogee altitude chart data...
Loading historical data...
Loading historical data...
Loading historical data...
Loading historical data...
Loading historical data...
Loading historical data...
Loading historical data...

STARLINK-32465 Visibility forecast

Observer location: undefined°, undefined°

Span
Click to sort rows by Start time (UTC) header in descending order
Start Az.
Max El. time (UTC)
Max El. Az.
Max El.
End time (UTC)
End Az.
5 mins2025-05-09 22:09:59.698Z176.562° S2025-05-09 22:11:59.698Z138.165° SSE20.974°2025-05-09 22:14:59.698Z79.043° E
5 mins2025-05-09 23:47:59.698Z264.916° W2025-05-09 23:49:59.698Z323.902° NNW33.806°2025-05-09 23:52:59.698Z35.538° NE
5 mins2025-05-10 04:44:59.698Z343.16° N2025-05-10 04:46:59.698Z29.404° NE23.283°2025-05-10 04:49:59.698Z85.491° E
5 mins2025-05-10 06:22:59.698Z288.989° WNW2025-05-10 06:24:59.698Z225.033° WSW36.16°2025-05-10 06:27:59.698Z153.366° SSE
|